Find Starlink 30091

NORAD ID: 57463 Int'l Des: 2023-107 Owner: SPXS Country: US Constellation: starlink decayed
LEOCIRCULAR

Re-entered — 20. Juni 2026

3D-Globus wird geladen...

About Starlink 30091

Starlink 30091 (NORAD 57463) is a starlink constellation satellite (v2 mini) launched Jul 28, 2023 by SPXS of US. It re-entered the atmosphere on Jun 20, 2026. with a mass of 730.00 kg.

Über Starlink 30091

Beschreibung wird geladen...

Höhenverlauf

Loading altitude history...

Zweizeiliger Elementsatz

1 57463U 23107G 26171.22197145 .12654868 87976-5 40127-2 0 9994
2 57463 42.9869 104.2391 0014028 183.5909 176.4880 16.25092031160948
Epoch: 20. Juni 2026 • Age: 112 hours

Aktueller Status

Position data unavailable
Startdatum 28. Juli 2023
Alter 2.9 years
Verglühungsdatum 20. Juni 2026
Typ internet

Technische Details

Klassifizierung Payload
Masse 730.00 kg
Trockenmasse 700.00 kg
Gesamtmasse 730.00 kg
Länge 0.30 m
Durchmesser 4.10 m
Spannweite 29.00 m
Form Box + pan
Hersteller SPXS
Bus-Typ Starlink V2M
Phasenstatus In Orbit
Besitzer/Staat SPXS/US

Most Searched